C/2017 D3 ( ATLAS )

Japanese version
Home page
Updated on June 3, 2017

---------------------------------------------------------------------

* Profile

Discovery Date February 23, 2017
Magnitude 18.0 mag
Discoverer Asteroid Terrestrial-impact Last Alert System (ATLAS) Team

* Pictures

* Orbital Elements

Epoch 2017 May 7.0 TT = JDT 2457880.5
T 2017 Apr. 26.91501 TT                                 MPCW
q   4.9711799            (2000.0)            P               Q
z  -0.0003629      Peri.  340.77893     -0.91592872     -0.39030766
 +/-0.0000684      Node   186.60371     -0.16804890     +0.16150370
e   1.0018039      Incl.  125.64205     -0.36446420     +0.90640857
From 175 observations 2017 Feb. 10-May 4, mean residual 0".6.

* Magnitudes Graph

        m1 = 7.0 + 5 log d + 10.0 log r

---------------------------------------------------------------------

The orbital elements are published on M.P.E.C. 2017-J52.
The magnitudes graphs are made with Comet for Windows.

---------------------------------------------------------------------

Copyright(C) Seiichi Yoshida (comet@aerith.net). All rights reserved.